When you browse on this site, cookies collect data to enhance your experience and personalize the content and advertising you see.
Visit our Privacy Policy to learn more. By continuing to use the site, you agree to this use of cookies and data.
  • In Austria
  • List of Countries
  • For 7 days
  • Water Temperature
  • Satellite Maps
  • Weather Map
  • News
  • Weather Widgets
  • user-avatar
    Login

    Hourly Weather Shaki

    Today, 21 May, Tuesday

    Time Temperature Precipitation Wind Pressure Humidity
    00:00 +18°C° 0.2 mm 2 mps 736 mmHg 76%
    01:00 +18°C° 0 mm 2 mps 736 mmHg 75%
    02:00 +18°C° 0 mm 2 mps 736 mmHg 74%
    03:00 +18°C° 0 mm 1 mps 736 mmHg 73%
    04:00 +19°C° 0.1 mm 1 mps 736 mmHg 69%
    05:00 +20°C° 0.1 mm 1 mps 737 mmHg 66%
    06:00 +20°C° 0.1 mm 1 mps 737 mmHg 63%
    07:00 +20°C° 0.1 mm 2 mps 737 mmHg 59%
    08:00 +21°C° 0.1 mm 2 mps 738 mmHg 55%
    09:00 +21°C° 0 mm 3 mps 738 mmHg 50%
    10:00 +22°C° 0.1 mm 3 mps 738 mmHg 48%
    11:00 +24°C° 0.1 mm 3 mps 738 mmHg 47%
    12:00 +25°C° 0.1 mm 4 mps 738 mmHg 46%
    13:00 +25°C° 0.1 mm 4 mps 738 mmHg 46%
    14:00 +25°C° 0.1 mm 4 mps 738 mmHg 46%
    15:00 +26°C° 0.1 mm 4 mps 738 mmHg 46%
    16:00 +25°C° 0.1 mm 3 mps 738 mmHg 48%
    17:00 +24°C° 0.1 mm 3 mps 738 mmHg 51%
    18:00 +24°C° 0.1 mm 3 mps 738 mmHg 53%
    19:00 +21°C° 0.1 mm 3 mps 738 mmHg 57%
    20:00 +20°C° 0.1 mm 3 mps 738 mmHg 60%
    21:00 +18°C° 0.1 mm 3 mps 739 mmHg 64%
    22:00 +18°C° 0 mm 3 mps 739 mmHg 65%
    23:00 +17°C° 0 mm 2 mps 739 mmHg 66%

    Tomorrow, 22 May, Wednesday

    Time Temperature Precipitation Wind Pressure Humidity
    00:00 +16°C° 0 mm 2 mps 739 mmHg 68%
    01:00 +16°C° 0 mm 2 mps 738 mmHg 67%
    02:00 +16°C° 0 mm 2 mps 738 mmHg 67%
    03:00 +15°C° 0 mm 2 mps 738 mmHg 66%
    04:00 +16°C° 0 mm 1 mps 738 mmHg 63%
    05:00 +18°C° 0 mm 1 mps 738 mmHg 60%
    06:00 +19°C° 0 mm 1 mps 738 mmHg 57%
    07:00 +20°C° 0 mm 1 mps 738 mmHg 53%
    08:00 +20°C° 0 mm 2 mps 737 mmHg 49%
    09:00 +21°C° 0 mm 2 mps 737 mmHg 46%
    10:00 +23°C° 0 mm 2 mps 737 mmHg 43%
    11:00 +24°C° 0 mm 3 mps 736 mmHg 41%
    12:00 +25°C° 0 mm 3 mps 736 mmHg 39%
    13:00 +25°C° 0 mm 2 mps 735 mmHg 38%
    14:00 +26°C° 0 mm 2 mps 735 mmHg 38%
    15:00 +26°C° 0 mm 2 mps 734 mmHg 37%
    16:00 +25°C° 0 mm 2 mps 734 mmHg 41%
    17:00 +24°C° 0 mm 1 mps 734 mmHg 44%
    18:00 +23°C° 0 mm 1 mps 734 mmHg 47%
    19:00 +22°C° 0 mm 1 mps 734 mmHg 46%
    20:00 +21°C° 0 mm 1 mps 734 mmHg 46%
    21:00 +19°C° 0 mm 2 mps 734 mmHg 45%
    22:00 +19°C° 0 mm 2 mps 734 mmHg 44%
    23:00 +18°C° 0 mm 2 mps 734 mmHg 43%

    Day after tomorrow, 23 May, Thursday

    Time Temperature Precipitation Wind Pressure Humidity
    00:00 +18°C° 0 mm 3 mps 734 mmHg 41%
    01:00 +18°C° 0 mm 3 mps 734 mmHg 42%
    02:00 +18°C° 0 mm 3 mps 734 mmHg 43%
    03:00 +17°C° 0 mm 4 mps 734 mmHg 43%
    04:00 +18°C° 0 mm 3 mps 734 mmHg 43%
    05:00 +19°C° 0 mm 3 mps 734 mmHg 43%
    06:00 +19°C° 0 mm 3 mps 733 mmHg 43%
    07:00 +21°C° 0 mm 3 mps 733 mmHg 36%
    08:00 +23°C° 0 mm 4 mps 734 mmHg 30%
    09:00 +26°C° 0 mm 4 mps 734 mmHg 24%
    10:00 +27°C° 0 mm 4 mps 733 mmHg 22%
    11:00 +28°C° 0 mm 5 mps 733 mmHg 19%
    12:00 +29°C° 0 mm 5 mps 733 mmHg 17%
    13:00 +29°C° 0 mm 5 mps 733 mmHg 18%
    14:00 +29°C° 0 mm 5 mps 732 mmHg 19%
    15:00 +29°C° 0 mm 5 mps 732 mmHg 21%
    16:00 +28°C° 0 mm 5 mps 732 mmHg 24%
    17:00 +27°C° 0 mm 4 mps 732 mmHg 28%
    18:00 +26°C° 0 mm 4 mps 732 mmHg 31%
    19:00 +24°C° 0 mm 3 mps 733 mmHg 31%
    20:00 +22°C° 0 mm 3 mps 733 mmHg 30%
    21:00 +21°C° 0 mm 3 mps 734 mmHg 30%
    22:00 +21°C° 0 mm 2 mps 734 mmHg 32%
    23:00 +20°C° 0 mm 2 mps 734 mmHg 34%

    24 May, Friday

    Time Temperature Precipitation Wind Pressure Humidity
    00:00 +19°C° 0 mm 2 mps 734 mmHg 35%
    01:00 +19°C° 0 mm 2 mps 734 mmHg 37%
    02:00 +18°C° 0 mm 2 mps 734 mmHg 38%
    03:00 +17°C° 0 mm 2 mps 734 mmHg 40%
    04:00 +18°C° 0 mm 2 mps 734 mmHg 39%
    05:00 +19°C° 0 mm 2 mps 734 mmHg 38%
    06:00 +20°C° 0 mm 2 mps 734 mmHg 37%
    07:00 +21°C° 0 mm 3 mps 734 mmHg 34%
    08:00 +23°C° 0 mm 4 mps 734 mmHg 31%
    09:00 +26°C° 0 mm 5 mps 735 mmHg 29%
    10:00 +27°C° 0 mm 4 mps 734 mmHg 28%
    11:00 +28°C° 0 mm 4 mps 734 mmHg 26%
    12:00 +29°C° 0 mm 4 mps 734 mmHg 25%
    13:00 +29°C° 0 mm 4 mps 734 mmHg 25%
    14:00 +30°C° 0 mm 4 mps 734 mmHg 24%
    15:00 +30°C° 0 mm 3 mps 733 mmHg 23%
    16:00 +29°C° 0 mm 3 mps 734 mmHg 26%
    17:00 +28°C° 0 mm 2 mps 734 mmHg 28%
    18:00 +28°C° 0 mm 1 mps 734 mmHg 31%
    19:00 +26°C° 0 mm 1 mps 734 mmHg 30%
    20:00 +24°C° 0 mm 2 mps 735 mmHg 29%
    21:00 +21°C° 0 mm 2 mps 735 mmHg 29%
    22:00 +21°C° 0 mm 2 mps 735 mmHg 28%
    23:00 +20°C° 0 mm 2 mps 735 mmHg 27%

    25 May, Saturday

    Time Temperature Precipitation Wind Pressure Humidity
    00:00 +20°C° 0 mm 2 mps 735 mmHg 26%
    01:00 +20°C° 0 mm 2 mps 735 mmHg 29%
    02:00 +20°C° 0 mm 2 mps 735 mmHg 33%
    03:00 +20°C° 0 mm 1 mps 735 mmHg 36%
    04:00 +21°C° 0 mm 1 mps 735 mmHg 38%
    05:00 +22°C° 0 mm 1 mps 735 mmHg 40%
    06:00 +23°C° 0 mm 1 mps 735 mmHg 42%
    07:00 +25°C° 0 mm 1 mps 735 mmHg 39%
    08:00 +27°C° 0 mm 2 mps 734 mmHg 36%
    09:00 +28°C° 0 mm 2 mps 734 mmHg 34%
    10:00 +29°C° 0 mm 2 mps 734 mmHg 32%
    11:00 +31°C° 0 mm 2 mps 733 mmHg 30%
    12:00 +32°C° 0 mm 2 mps 733 mmHg 28%
    13:00 +32°C° 0 mm 2 mps 732 mmHg 27%
    14:00 +34°C° 0 mm 2 mps 732 mmHg 26%
    15:00 +35°C° 0 mm 2 mps 731 mmHg 25%
    16:00 +34°C° 0 mm 2 mps 731 mmHg 28%
    17:00 +32°C° 0 mm 2 mps 731 mmHg 31%
    18:00 +31°C° 0 mm 1 mps 731 mmHg 34%
    19:00 +29°C° 0.2 mm 2 mps 731 mmHg 38%
    20:00 +27°C° 0.2 mm 2 mps 732 mmHg 42%
    21:00 +26°C° 0.2 mm 3 mps 732 mmHg 45%
    22:00 +25°C° 0.1 mm 3 mps 732 mmHg 44%
    23:00 +25°C° 0.1 mm 2 mps 732 mmHg 43%

    26 May, Sunday

    Time Temperature Precipitation Wind Pressure Humidity
    00:00 +25°C° 0.1 mm 2 mps 731 mmHg 41%
    01:00 +24°C° 0.2 mm 2 mps 731 mmHg 42%
    02:00 +24°C° 0.2 mm 2 mps 731 mmHg 43%
    03:00 +23°C° 0.2 mm 2 mps 731 mmHg 43%
    04:00 +24°C° 0 mm 2 mps 731 mmHg 42%
    05:00 +25°C° 0 mm 2 mps 731 mmHg 42%
    06:00 +26°C° 0 mm 2 mps 731 mmHg 41%
    07:00 +28°C° 0 mm 3 mps 731 mmHg 37%
    08:00 +30°C° 0 mm 3 mps 731 mmHg 33%
    09:00 +33°C° 0 mm 3 mps 731 mmHg 29%
    10:00 +34°C° 0 mm 4 mps 731 mmHg 27%
    11:00 +35°C° 0 mm 4 mps 731 mmHg 25%
    12:00 +36°C° 0 mm 4 mps 731 mmHg 23%
    13:00 +36°C° 0.1 mm 3 mps 731 mmHg 23%
    14:00 +35°C° 0.1 mm 3 mps 730 mmHg 23%
    15:00 +35°C° 0.1 mm 3 mps 730 mmHg 23%
    16:00 +34°C° 0.4 mm 2 mps 731 mmHg 29%
    17:00 +31°C° 0.4 mm 2 mps 731 mmHg 34%
    18:00 +29°C° 0.4 mm 1 mps 731 mmHg 40%
    19:00 +28°C° 0.1 mm 1 mps 732 mmHg 38%
    20:00 +26°C° 0.1 mm 2 mps 733 mmHg 37%
    21:00 +24°C° 0.1 mm 2 mps 733 mmHg 36%
    22:00 +24°C° 0 mm 2 mps 733 mmHg 35%
    23:00 +23°C° 0 mm 2 mps 733 mmHg 33%
    Show more